Location: Silverdale
(47.6506°N, 122.6941°W)
Time: 01:05:15
(UTC+00:00)

A-11 Canister half - Pass Details

Date: 03 October 2022
Orbit: 1524 x 1685 km, 47.3° (Epoch: 05 December)

Event Time Altitude Azimuth Distance (km) Brightness Sun altitude
Rises 03:37:27 0° 281° (W) 4,691 13.2 -19.2°
Reaches altitude 10° 03:40:27 10° 280° (W) 3,719 12.2 -19.6°
Maximum altitude 03:49:52 79° 196° (SSW) 1,598 9.0 -21.2°
Enters shadow 03:54:56 33° 115° (ESE) 2,438 9.5 -22.0°
